User: anonymous   Login
Location: Morlupo
(42.1333°N, 12.5000°E)
Time: 23:19:37
(UTC+00:00)
Language:

Cosmos 2263 Rocket - Orbit

View from above orbital plane
View from above orbital plane
View from above satellite
View from above satellite

Ground track
Ground track

The orbit data is extracted from the following two-line orbital elements,

1 22803U 93059B   20336.51562707 -.00000187 +00000-0 -69407-4 0  9996
2 22803 070.9880 107.1962 0019579 262.6428 097.2471 14.16828467406968
Epoch (UTC): 01 December 2020 12:22:30
Eccentricity: 0.0019579
inclination: 70.9880°
perigee height: 822 km
apogee height: 850 km
right ascension of ascending node: 107.1962°
argument of perigee: 262.6428°
revolutions per day: 14.16828467
mean anomaly at epoch: 97.2471°
orbit number at epoch: 40696

The dashed part of the orbit path shows where the satellite is in the earth's shadow,  

DLR